Zurück zum Katalog

THOR ABLESTAR DEB

AktivLEO
NORAD 172·DEBRIS·🇺🇸 United States

Gestartet Jun 29, 1961 von Cape Canaveral Space Force Station

Loading…

Nächste Überflüge (nächste 24 Stunden)

TLE

AktuellSource: Space-Track

Epoche: Sep 7, 2026, 14:07 UTC

1 00172U 61015AY  26250.58884771  .00000355  00000-0  54259-3 0  9997
2 00172  67.0698 339.4978 0130535   3.6612 356.5376 13.59313946216318

Verfolge THOR ABLESTAR DEB in Echtzeit mit AllMySat

Download on the App Store